Year,Month,Day,Hour,Minute,Value (Times are PST for temperature in C)
2018,07,30,00,00,21.70
2018,07,30,00,01,21.70
2018,07,30,00,02,21.70
2018,07,30,00,03,21.70
2018,07,30,00,04,21.60
2018,07,30,00,05,21.60
2018,07,30,00,06,21.60
2018,07,30,00,07,21.60
2018,07,30,00,08,21.60
2018,07,30,00,09,21.60
2018,07,30,00,10,21.60
2018,07,30,00,11,21.60
2018,07,30,00,12,21.60
2018,07,30,00,13,21.50
2018,07,30,00,14,21.50
2018,07,30,00,15,21.50
2018,07,30,00,16,21.50
2018,07,30,00,17,21.50
2018,07,30,00,18,21.50
2018,07,30,00,19,21.50
2018,07,30,00,20,21.50
2018,07,30,00,21,21.60
2018,07,30,00,22,21.60
2018,07,30,00,23,21.60
2018,07,30,00,24,21.60
2018,07,30,00,25,21.60
2018,07,30,00,26,21.60
2018,07,30,00,27,21.50
2018,07,30,00,28,21.50
2018,07,30,00,29,21.50
2018,07,30,00,30,21.50
2018,07,30,00,31,21.40
2018,07,30,00,32,21.40
2018,07,30,00,33,21.40
2018,07,30,00,34,21.40
2018,07,30,00,35,21.30
2018,07,30,00,36,21.30
2018,07,30,00,37,21.30
2018,07,30,00,38,21.30
2018,07,30,00,39,21.30
2018,07,30,00,40,21.30
2018,07,30,00,41,21.30
2018,07,30,00,42,21.30
2018,07,30,00,43,21.30
2018,07,30,00,44,21.30
2018,07,30,00,45,21.20
2018,07,30,00,46,21.20
2018,07,30,00,47,21.20
2018,07,30,00,48,21.20
2018,07,30,00,49,21.20
2018,07,30,00,50,21.20
2018,07,30,00,51,21.20
2018,07,30,00,52,21.10
2018,07,30,00,53,21.10
2018,07,30,00,54,21.10
2018,07,30,00,55,21.10
2018,07,30,00,56,21.10
2018,07,30,00,57,21.00
2018,07,30,00,58,21.00
2018,07,30,00,59,21.00
2018,07,30,01,00,21.00
2018,07,30,01,01,21.00
2018,07,30,01,02,21.00
2018,07,30,01,03,21.00
2018,07,30,01,04,21.00
2018,07,30,01,05,21.00
2018,07,30,01,06,21.00
2018,07,30,01,07,21.00
2018,07,30,01,08,21.00
2018,07,30,01,09,21.00
2018,07,30,01,10,20.90
2018,07,30,01,11,20.90
2018,07,30,01,12,20.90
2018,07,30,01,13,21.00
2018,07,30,01,14,21.00
2018,07,30,01,15,21.10
2018,07,30,01,16,21.10
2018,07,30,01,17,21.10
2018,07,30,01,18,21.10
2018,07,30,01,19,21.10
2018,07,30,01,20,21.10
2018,07,30,01,21,21.10
2018,07,30,01,22,21.10
2018,07,30,01,23,21.20
2018,07,30,01,24,21.20
2018,07,30,01,25,21.20
2018,07,30,01,26,21.20
2018,07,30,01,27,21.20
2018,07,30,01,28,21.10
2018,07,30,01,29,21.10
2018,07,30,01,30,21.10
2018,07,30,01,31,21.10
2018,07,30,01,32,21.10
2018,07,30,01,33,21.10
2018,07,30,01,34,21.10
2018,07,30,01,35,21.20
2018,07,30,01,36,21.30
2018,07,30,01,37,21.30
2018,07,30,01,38,21.40
2018,07,30,01,39,21.50
2018,07,30,01,40,21.50
2018,07,30,01,41,21.50
2018,07,30,01,42,21.50
2018,07,30,01,43,21.50
2018,07,30,01,44,21.40
2018,07,30,01,45,21.40
2018,07,30,01,46,21.40
2018,07,30,01,47,21.30
2018,07,30,01,48,21.30
2018,07,30,01,49,21.30
2018,07,30,01,50,21.20
2018,07,30,01,51,21.20
2018,07,30,01,52,21.10
2018,07,30,01,53,21.10
2018,07,30,01,54,21.10
2018,07,30,01,55,21.10
2018,07,30,01,56,21.00
2018,07,30,01,57,21.00
2018,07,30,01,58,21.10
2018,07,30,01,59,21.10
2018,07,30,02,00,21.20
2018,07,30,02,01,21.30
2018,07,30,02,02,21.40
2018,07,30,02,03,21.40
2018,07,30,02,04,21.50
2018,07,30,02,05,21.50
2018,07,30,02,06,21.50
2018,07,30,02,07,21.60
2018,07,30,02,08,21.70
2018,07,30,02,09,21.80
2018,07,30,02,10,21.90
2018,07,30,02,11,22.00
2018,07,30,02,12,22.20
2018,07,30,02,13,22.40
2018,07,30,02,14,22.50
2018,07,30,02,15,22.70
2018,07,30,02,16,23.00
2018,07,30,02,17,23.10
2018,07,30,02,18,23.20
2018,07,30,02,19,23.20
2018,07,30,02,20,23.20
2018,07,30,02,21,23.20
2018,07,30,02,22,23.20
2018,07,30,02,23,23.20
2018,07,30,02,24,23.10
2018,07,30,02,25,23.10
2018,07,30,02,26,23.10
2018,07,30,02,27,23.20
2018,07,30,02,28,23.20
2018,07,30,02,29,23.20
2018,07,30,02,30,23.10
2018,07,30,02,31,23.10
2018,07,30,02,32,23.00
2018,07,30,02,33,22.80
2018,07,30,02,34,22.70
2018,07,30,02,35,22.60
2018,07,30,02,36,22.50
2018,07,30,02,37,22.30
2018,07,30,02,38,22.20
2018,07,30,02,39,22.20
2018,07,30,02,40,22.10
2018,07,30,02,41,22.20
2018,07,30,02,42,22.20
2018,07,30,02,43,22.30
2018,07,30,02,44,22.40
2018,07,30,02,45,22.50
2018,07,30,02,46,22.60
2018,07,30,02,47,22.70
2018,07,30,02,48,22.70
2018,07,30,02,49,22.70
2018,07,30,02,50,22.70
2018,07,30,02,51,22.60
2018,07,30,02,52,22.60
2018,07,30,02,53,22.50
2018,07,30,02,54,22.40
2018,07,30,02,55,22.30
2018,07,30,02,56,22.20
2018,07,30,02,57,22.10
2018,07,30,02,58,22.10
2018,07,30,02,59,22.00
2018,07,30,03,00,22.00
2018,07,30,03,01,21.90
2018,07,30,03,02,21.90
2018,07,30,03,03,21.80
2018,07,30,03,04,21.80
2018,07,30,03,05,21.80
2018,07,30,03,06,21.80
2018,07,30,03,07,21.80
2018,07,30,03,08,21.80
2018,07,30,03,09,21.70
2018,07,30,03,10,21.80
2018,07,30,03,11,21.80
2018,07,30,03,12,21.80
2018,07,30,03,13,21.90
2018,07,30,03,14,21.90
2018,07,30,03,15,21.90
2018,07,30,03,16,21.90
2018,07,30,03,17,21.90
2018,07,30,03,18,21.90
2018,07,30,03,19,21.90
2018,07,30,03,20,21.90
2018,07,30,03,21,22.00
2018,07,30,03,22,22.10
2018,07,30,03,23,22.10
2018,07,30,03,24,22.20
2018,07,30,03,25,22.30
2018,07,30,03,26,22.30
2018,07,30,03,27,22.30
2018,07,30,03,28,22.40
2018,07,30,03,29,22.40
2018,07,30,03,30,22.50
2018,07,30,03,31,22.50
2018,07,30,03,32,22.50
2018,07,30,03,33,22.50
2018,07,30,03,34,22.50
2018,07,30,03,35,22.40
2018,07,30,03,36,22.40
2018,07,30,03,37,22.30
2018,07,30,03,38,22.30
2018,07,30,03,39,22.30
2018,07,30,03,40,22.30
2018,07,30,03,41,22.30
2018,07,30,03,42,22.30
2018,07,30,03,43,22.30
2018,07,30,03,44,22.30
2018,07,30,03,45,22.40
2018,07,30,03,46,22.40
2018,07,30,03,47,22.40
2018,07,30,03,48,22.40
2018,07,30,03,49,22.40
2018,07,30,03,50,22.40
2018,07,30,03,51,22.40
2018,07,30,03,52,22.40
2018,07,30,03,53,22.30
2018,07,30,03,54,22.30
2018,07,30,03,55,22.30
2018,07,30,03,56,22.30
2018,07,30,03,57,22.30
2018,07,30,03,58,22.30
2018,07,30,03,59,22.30
2018,07,30,04,00,22.30
2018,07,30,04,01,22.30
2018,07,30,04,02,22.30
2018,07,30,04,03,22.30
2018,07,30,04,04,22.30
2018,07,30,04,05,22.30
2018,07,30,04,06,22.20
2018,07,30,04,07,22.20
2018,07,30,04,08,22.20
2018,07,30,04,09,22.10
2018,07,30,04,10,22.10
2018,07,30,04,11,22.10
2018,07,30,04,12,22.10
2018,07,30,04,13,22.20
2018,07,30,04,14,22.20
2018,07,30,04,15,22.20
2018,07,30,04,16,22.20
2018,07,30,04,17,22.30
2018,07,30,04,18,22.30
2018,07,30,04,19,22.30
2018,07,30,04,20,22.30
2018,07,30,04,21,22.30
2018,07,30,04,22,22.30
2018,07,30,04,23,22.20
2018,07,30,04,24,22.20
2018,07,30,04,25,22.20
2018,07,30,04,26,22.20
2018,07,30,04,27,22.20
2018,07,30,04,28,22.10
2018,07,30,04,29,22.10
2018,07,30,04,30,22.00
2018,07,30,04,31,21.90
2018,07,30,04,32,21.90
2018,07,30,04,33,21.80
2018,07,30,04,34,21.60
2018,07,30,04,35,21.60
2018,07,30,04,36,21.50
2018,07,30,04,37,21.40
2018,07,30,04,38,21.30
2018,07,30,04,39,21.20
2018,07,30,04,40,21.20
2018,07,30,04,41,21.10
2018,07,30,04,42,21.00
2018,07,30,04,43,20.90
2018,07,30,04,44,20.80
2018,07,30,04,45,20.70
2018,07,30,04,46,20.60
2018,07,30,04,47,20.50
2018,07,30,04,48,20.40
2018,07,30,04,49,20.30
2018,07,30,04,50,20.20
2018,07,30,04,51,20.10
2018,07,30,04,52,20.10
2018,07,30,04,53,20.00
2018,07,30,04,54,19.90
2018,07,30,04,55,19.80
2018,07,30,04,56,19.70
2018,07,30,04,57,19.60
2018,07,30,04,58,19.50
2018,07,30,04,59,19.50
2018,07,30,05,00,19.40
2018,07,30,05,01,19.30
2018,07,30,05,02,19.20
2018,07,30,05,03,19.20
2018,07,30,05,04,19.20
2018,07,30,05,05,19.10
2018,07,30,05,06,19.00
2018,07,30,05,07,19.00
2018,07,30,05,08,18.90
2018,07,30,05,09,18.90
2018,07,30,05,10,18.90
2018,07,30,05,11,18.80
2018,07,30,05,12,18.80
2018,07,30,05,13,18.80
2018,07,30,05,14,18.80
2018,07,30,05,15,18.80
2018,07,30,05,16,18.70
2018,07,30,05,17,18.70
2018,07,30,05,18,18.70
2018,07,30,05,19,18.70
2018,07,30,05,20,18.70
2018,07,30,05,21,18.60
2018,07,30,05,22,18.60
2018,07,30,05,23,18.60
2018,07,30,05,24,18.60
2018,07,30,05,25,18.60
2018,07,30,05,26,18.60
2018,07,30,05,27,18.70
2018,07,30,05,28,18.70
2018,07,30,05,29,18.70
2018,07,30,05,30,18.80
2018,07,30,05,31,18.80
2018,07,30,05,32,18.80
2018,07,30,05,33,18.80
2018,07,30,05,34,18.80
2018,07,30,05,35,18.80
2018,07,30,05,36,18.80
2018,07,30,05,37,18.80
2018,07,30,05,38,18.80
2018,07,30,05,39,18.80
2018,07,30,05,40,18.80
2018,07,30,05,41,18.80
2018,07,30,05,42,18.80
2018,07,30,05,43,18.80
2018,07,30,05,44,18.80
2018,07,30,05,45,18.80
2018,07,30,05,46,18.70
2018,07,30,05,47,18.70
2018,07,30,05,48,18.70
2018,07,30,05,49,18.70
2018,07,30,05,50,18.70
2018,07,30,05,51,18.60
2018,07,30,05,52,18.60
2018,07,30,05,53,18.50
2018,07,30,05,54,18.40
2018,07,30,05,55,18.40
2018,07,30,05,56,18.30
2018,07,30,05,57,18.30
2018,07,30,05,58,18.20
2018,07,30,05,59,18.10
2018,07,30,06,00,18.10
2018,07,30,06,01,18.00
2018,07,30,06,02,17.90
2018,07,30,06,03,17.90
2018,07,30,06,04,17.80
2018,07,30,06,05,17.80
2018,07,30,06,06,17.70
2018,07,30,06,07,17.70
2018,07,30,06,08,17.70
2018,07,30,06,09,17.70
2018,07,30,06,10,17.70
2018,07,30,06,11,17.70
2018,07,30,06,12,17.60
2018,07,30,06,13,17.60
2018,07,30,06,14,17.60
2018,07,30,06,15,17.60
2018,07,30,06,16,17.60
2018,07,30,06,17,17.60
2018,07,30,06,18,17.60
2018,07,30,06,19,17.60
2018,07,30,06,20,17.60
2018,07,30,06,21,17.60
2018,07,30,06,22,17.60
2018,07,30,06,23,17.60
2018,07,30,06,24,17.60
2018,07,30,06,25,17.60
2018,07,30,06,26,17.60
2018,07,30,06,27,17.60
2018,07,30,06,28,17.60
2018,07,30,06,29,17.60
2018,07,30,06,30,17.60
2018,07,30,06,31,17.60
2018,07,30,06,32,17.60
2018,07,30,06,33,17.60
2018,07,30,06,34,17.70
2018,07,30,06,35,17.70
2018,07,30,06,36,17.70
2018,07,30,06,37,17.70
2018,07,30,06,38,17.70
2018,07,30,06,39,17.80
2018,07,30,06,40,17.80
2018,07,30,06,41,17.80
2018,07,30,06,42,17.80
2018,07,30,06,43,17.90
2018,07,30,06,44,17.90
2018,07,30,06,45,17.90
2018,07,30,06,46,17.90
2018,07,30,06,47,18.00
2018,07,30,06,48,18.00
2018,07,30,06,49,18.10
2018,07,30,06,50,18.10
2018,07,30,06,51,18.10
2018,07,30,06,52,18.20
2018,07,30,06,53,18.20
2018,07,30,06,54,18.20
2018,07,30,06,55,18.20
2018,07,30,06,56,18.20
2018,07,30,06,57,18.30
2018,07,30,06,58,18.30
2018,07,30,06,59,18.30
2018,07,30,07,00,18.30
2018,07,30,07,01,18.40
2018,07,30,07,02,18.50
2018,07,30,07,03,18.50
2018,07,30,07,04,18.60
2018,07,30,07,05,18.70
2018,07,30,07,06,18.70
2018,07,30,07,07,18.80
2018,07,30,07,08,18.80
2018,07,30,07,09,18.80
2018,07,30,07,10,18.90
2018,07,30,07,11,19.00
2018,07,30,07,12,19.10
2018,07,30,07,13,19.10
2018,07,30,07,14,19.20
2018,07,30,07,15,19.30
2018,07,30,07,16,19.30
2018,07,30,07,17,19.30
2018,07,30,07,18,19.40
2018,07,30,07,19,19.40
2018,07,30,07,20,19.50
2018,07,30,07,21,19.50
2018,07,30,07,22,19.60
2018,07,30,07,23,19.60
2018,07,30,07,24,19.70
2018,07,30,07,25,19.70
2018,07,30,07,26,19.80
2018,07,30,07,27,19.80
2018,07,30,07,28,19.90
2018,07,30,07,29,20.00
2018,07,30,07,30,20.00
2018,07,30,07,31,20.10
2018,07,30,07,32,20.10
2018,07,30,07,33,20.20
2018,07,30,07,34,20.20
2018,07,30,07,35,20.30
2018,07,30,07,36,20.30
2018,07,30,07,37,20.40
2018,07,30,07,38,20.50
2018,07,30,07,39,20.50
2018,07,30,07,40,20.60
2018,07,30,07,41,20.70
2018,07,30,07,42,20.70
2018,07,30,07,43,20.80
2018,07,30,07,44,20.90
2018,07,30,07,45,20.90
2018,07,30,07,46,21.00
2018,07,30,07,47,21.10
2018,07,30,07,48,21.10
2018,07,30,07,49,21.20
2018,07,30,07,50,21.20
2018,07,30,07,51,21.20
2018,07,30,07,52,21.20
2018,07,30,07,53,21.20
2018,07,30,07,54,21.20
2018,07,30,07,55,21.20
2018,07,30,07,56,21.20
2018,07,30,07,57,21.20
2018,07,30,07,58,21.20
2018,07,30,07,59,21.30
2018,07,30,08,00,21.30
2018,07,30,08,01,21.40
2018,07,30,08,02,21.50
2018,07,30,08,03,21.50
2018,07,30,08,04,21.60
2018,07,30,08,05,21.60
2018,07,30,08,06,21.60
2018,07,30,08,07,21.70
2018,07,30,08,08,21.80
2018,07,30,08,09,21.80
2018,07,30,08,10,21.90
2018,07,30,08,11,22.00
2018,07,30,08,12,22.00
2018,07,30,08,13,22.10
2018,07,30,08,14,22.20
2018,07,30,08,15,22.20
2018,07,30,08,16,22.20
2018,07,30,08,17,22.30
2018,07,30,08,18,22.30
2018,07,30,08,19,22.40
2018,07,30,08,20,22.40
2018,07,30,08,21,22.40
2018,07,30,08,22,22.50
2018,07,30,08,23,22.50
2018,07,30,08,24,22.60
2018,07,30,08,25,22.60
2018,07,30,08,26,22.70
2018,07,30,08,27,22.70
2018,07,30,08,28,22.80
2018,07,30,08,29,22.90
2018,07,30,08,30,23.00
2018,07,30,08,31,23.10
2018,07,30,08,32,23.20
2018,07,30,08,33,23.20
2018,07,30,08,34,23.30
2018,07,30,08,35,23.40
2018,07,30,08,36,23.40
2018,07,30,08,37,23.40
2018,07,30,08,38,23.50
2018,07,30,08,39,23.50
2018,07,30,08,40,23.50
2018,07,30,08,41,23.50
2018,07,30,08,42,23.60
2018,07,30,08,43,23.50
2018,07,30,08,44,23.50
2018,07,30,08,45,23.50
2018,07,30,08,46,23.40
2018,07,30,08,47,23.40
2018,07,30,08,48,23.40
2018,07,30,08,49,23.40
2018,07,30,08,50,23.40
2018,07,30,08,51,23.40
2018,07,30,08,52,23.40
2018,07,30,08,53,23.40
2018,07,30,08,54,23.50
2018,07,30,08,55,23.60
2018,07,30,08,56,23.60
2018,07,30,08,57,23.70
2018,07,30,08,58,23.70
2018,07,30,08,59,23.70
2018,07,30,09,00,23.70
2018,07,30,09,01,23.70
2018,07,30,09,02,23.70
2018,07,30,09,03,23.80
2018,07,30,09,04,23.80
2018,07,30,09,05,23.80
2018,07,30,09,06,23.80
2018,07,30,09,07,23.80
2018,07,30,09,08,23.80
2018,07,30,09,09,23.90
2018,07,30,09,10,23.90
2018,07,30,09,11,23.90
2018,07,30,09,12,23.90
2018,07,30,09,13,24.00
2018,07,30,09,14,24.00
2018,07,30,09,15,24.00
2018,07,30,09,16,24.00
2018,07,30,09,17,24.10
2018,07,30,09,18,24.10
2018,07,30,09,19,24.10
2018,07,30,09,20,24.20
2018,07,30,09,21,24.20
2018,07,30,09,22,24.20
2018,07,30,09,23,24.20
2018,07,30,09,24,24.30
2018,07,30,09,25,24.30
2018,07,30,09,26,24.30
2018,07,30,09,27,24.30
2018,07,30,09,28,24.40
2018,07,30,09,29,24.40
2018,07,30,09,30,24.40
2018,07,30,09,31,24.50
2018,07,30,09,32,24.50
2018,07,30,09,33,24.60
2018,07,30,09,34,24.70
2018,07,30,09,35,24.80
2018,07,30,09,36,24.80
2018,07,30,09,37,24.90
2018,07,30,09,38,25.00
2018,07,30,09,39,25.00
2018,07,30,09,40,25.00
2018,07,30,09,41,25.10
2018,07,30,09,42,25.10
2018,07,30,09,43,25.10
2018,07,30,09,44,25.20
2018,07,30,09,45,25.20
2018,07,30,09,46,25.20
2018,07,30,09,47,25.30
2018,07,30,09,48,25.30
2018,07,30,09,49,25.30
2018,07,30,09,50,25.30
2018,07,30,09,51,25.30
2018,07,30,09,52,25.30
2018,07,30,09,53,25.30
2018,07,30,09,54,25.40
2018,07,30,09,55,25.40
2018,07,30,09,56,25.50
2018,07,30,09,57,25.50
2018,07,30,09,58,25.60
2018,07,30,09,59,25.60
2018,07,30,10,00,25.70
2018,07,30,10,01,25.80
2018,07,30,10,02,25.80
2018,07,30,10,03,25.90
2018,07,30,10,04,26.00
2018,07,30,10,05,26.10
2018,07,30,10,06,26.10
2018,07,30,10,07,26.10
2018,07,30,10,08,26.10
2018,07,30,10,09,26.10
2018,07,30,10,10,26.10
2018,07,30,10,11,26.10
2018,07,30,10,12,26.10
2018,07,30,10,13,26.10
2018,07,30,10,14,26.10
2018,07,30,10,15,26.00
2018,07,30,10,16,26.00
2018,07,30,10,17,26.00
2018,07,30,10,18,26.00
2018,07,30,10,19,25.90
2018,07,30,10,20,26.00
2018,07,30,10,21,26.00
2018,07,30,10,22,26.10
2018,07,30,10,23,26.10
2018,07,30,10,24,26.20
2018,07,30,10,25,26.30
2018,07,30,10,26,26.30
2018,07,30,10,27,26.40
2018,07,30,10,28,26.40
2018,07,30,10,29,26.50
2018,07,30,10,30,26.50
2018,07,30,10,31,26.60
2018,07,30,10,32,26.70
2018,07,30,10,33,26.80
2018,07,30,10,34,26.90
2018,07,30,10,35,27.00
2018,07,30,10,36,27.10
2018,07,30,10,37,27.20
2018,07,30,10,38,27.20
2018,07,30,10,39,27.20
2018,07,30,10,40,27.20
2018,07,30,10,41,27.10
2018,07,30,10,42,27.10
2018,07,30,10,43,27.10
2018,07,30,10,44,27.10
2018,07,30,10,45,27.10
2018,07,30,10,46,27.10
2018,07,30,10,47,27.10
2018,07,30,10,48,27.10
2018,07,30,10,49,27.10
2018,07,30,10,50,27.10
2018,07,30,10,51,27.20
2018,07,30,10,52,27.20
2018,07,30,10,53,27.30
2018,07,30,10,54,27.30
2018,07,30,10,55,27.30
2018,07,30,10,56,27.30
2018,07,30,10,57,27.40
2018,07,30,10,58,27.50
2018,07,30,10,59,27.60
2018,07,30,11,00,27.60
2018,07,30,11,01,27.70
2018,07,30,11,02,27.70
2018,07,30,11,03,27.80
2018,07,30,11,04,27.90
2018,07,30,11,05,28.00
2018,07,30,11,06,28.10
2018,07,30,11,07,28.20
2018,07,30,11,08,28.20
2018,07,30,11,09,28.30
2018,07,30,11,10,28.30
2018,07,30,11,11,28.30
2018,07,30,11,12,28.20
2018,07,30,11,13,28.10
2018,07,30,11,14,28.10
2018,07,30,11,15,28.10
2018,07,30,11,16,28.00
2018,07,30,11,17,28.00
2018,07,30,11,18,27.80
2018,07,30,11,19,27.70
2018,07,30,11,20,27.60
2018,07,30,11,21,27.60
2018,07,30,11,22,27.60
2018,07,30,11,23,27.60
2018,07,30,11,24,27.60
2018,07,30,11,25,27.70
2018,07,30,11,26,27.70
2018,07,30,11,27,27.70
2018,07,30,11,28,27.80
2018,07,30,11,29,27.80
2018,07,30,11,30,27.90
2018,07,30,11,31,27.90
2018,07,30,11,32,27.90
2018,07,30,11,33,27.90
2018,07,30,11,34,27.90
2018,07,30,11,35,27.90
2018,07,30,11,36,27.90
2018,07,30,11,37,27.90
2018,07,30,11,38,27.90
2018,07,30,11,39,27.90
2018,07,30,11,40,27.80
2018,07,30,11,41,27.80
2018,07,30,11,42,27.80
2018,07,30,11,43,27.80
2018,07,30,11,44,27.90
2018,07,30,11,45,28.00
2018,07,30,11,46,28.00
2018,07,30,11,47,28.10
2018,07,30,11,48,28.20
2018,07,30,11,49,28.30
2018,07,30,11,50,28.30
2018,07,30,11,51,28.30
2018,07,30,11,52,28.20
2018,07,30,11,53,28.10
2018,07,30,11,54,27.90
2018,07,30,11,55,27.90
2018,07,30,11,56,27.80
2018,07,30,11,57,27.70
2018,07,30,11,58,27.60
2018,07,30,11,59,27.60
2018,07,30,12,00,27.40
2018,07,30,12,01,27.40
2018,07,30,12,02,27.30
2018,07,30,12,03,27.30
2018,07,30,12,04,27.30
2018,07,30,12,05,27.40
2018,07,30,12,06,27.40
2018,07,30,12,07,27.50
2018,07,30,12,08,27.50
2018,07,30,12,09,27.60
2018,07,30,12,10,27.70
2018,07,30,12,11,27.80
2018,07,30,12,12,27.80
2018,07,30,12,13,27.90
2018,07,30,12,14,28.00
2018,07,30,12,15,28.10
2018,07,30,12,16,28.20
2018,07,30,12,17,28.30
2018,07,30,12,18,28.40
2018,07,30,12,19,28.50
2018,07,30,12,20,28.60
2018,07,30,12,21,28.70
2018,07,30,12,22,28.80
2018,07,30,12,23,28.80
2018,07,30,12,24,28.90
2018,07,30,12,25,29.00
2018,07,30,12,26,29.10
2018,07,30,12,27,29.10
2018,07,30,12,28,29.00
2018,07,30,12,29,29.00
2018,07,30,12,30,28.90
2018,07,30,12,31,29.00
2018,07,30,12,32,29.00
2018,07,30,12,33,29.10
2018,07,30,12,34,29.10
2018,07,30,12,35,29.20
2018,07,30,12,36,29.10
2018,07,30,12,37,29.10
2018,07,30,12,38,29.20
2018,07,30,12,39,29.20
2018,07,30,12,40,29.30
2018,07,30,12,41,29.30
2018,07,30,12,42,29.30
2018,07,30,12,43,29.30
2018,07,30,12,44,29.30
2018,07,30,12,45,29.30
2018,07,30,12,46,29.30
2018,07,30,12,47,29.30
2018,07,30,12,48,29.30
2018,07,30,12,49,29.30
2018,07,30,12,50,29.30
2018,07,30,12,51,29.30
2018,07,30,12,52,29.30
2018,07,30,12,53,29.40
2018,07,30,12,54,29.40
2018,07,30,12,55,29.40
2018,07,30,12,56,29.40
2018,07,30,12,57,29.40
2018,07,30,12,58,29.40
2018,07,30,12,59,29.40
2018,07,30,13,00,29.30
2018,07,30,13,01,29.30
2018,07,30,13,02,29.30
2018,07,30,13,03,29.30
2018,07,30,13,04,29.30
2018,07,30,13,05,29.20
2018,07,30,13,06,29.20
2018,07,30,13,07,29.10
2018,07,30,13,08,29.10
2018,07,30,13,09,29.10
2018,07,30,13,10,29.10
2018,07,30,13,11,29.10
2018,07,30,13,12,29.10
2018,07,30,13,13,29.10
2018,07,30,13,14,29.10
2018,07,30,13,15,29.10
2018,07,30,13,16,29.10
2018,07,30,13,17,29.10
2018,07,30,13,18,29.20
2018,07,30,13,19,29.20
2018,07,30,13,20,29.30
2018,07,30,13,21,29.40
2018,07,30,13,22,29.50
2018,07,30,13,23,29.50
2018,07,30,13,24,29.60
2018,07,30,13,25,29.60
2018,07,30,13,26,29.70
2018,07,30,13,27,29.70
2018,07,30,13,28,29.70
2018,07,30,13,29,29.70
2018,07,30,13,30,29.80
2018,07,30,13,31,29.80
2018,07,30,13,32,29.90
2018,07,30,13,33,29.90
2018,07,30,13,34,29.90
2018,07,30,13,35,29.90
2018,07,30,13,36,29.80
2018,07,30,13,37,29.80
2018,07,30,13,38,29.80
2018,07,30,13,39,29.70
2018,07,30,13,40,29.70
2018,07,30,13,41,29.70
2018,07,30,13,42,29.60
2018,07,30,13,43,29.60
2018,07,30,13,44,29.50
2018,07,30,13,45,29.50
2018,07,30,13,46,29.50
2018,07,30,13,47,29.50
2018,07,30,13,48,29.50
2018,07,30,13,49,29.50
2018,07,30,13,50,29.60
2018,07,30,13,51,29.60
2018,07,30,13,52,29.60
2018,07,30,13,53,29.70
2018,07,30,13,54,29.70
2018,07,30,13,55,29.70
2018,07,30,13,56,29.70
2018,07,30,13,57,29.70
2018,07,30,13,58,29.80
2018,07,30,13,59,29.80
2018,07,30,14,00,29.90
2018,07,30,14,01,29.90
2018,07,30,14,02,29.90
2018,07,30,14,03,29.90
2018,07,30,14,04,29.90
2018,07,30,14,05,30.00
2018,07,30,14,06,29.90
2018,07,30,14,07,29.90
2018,07,30,14,08,29.90
2018,07,30,14,09,29.90
2018,07,30,14,10,29.90
2018,07,30,14,11,29.90
2018,07,30,14,12,29.90
2018,07,30,14,13,30.00
2018,07,30,14,14,30.00
2018,07,30,14,15,30.10
2018,07,30,14,16,30.10
2018,07,30,14,17,30.20
2018,07,30,14,18,30.20
2018,07,30,14,19,30.20
2018,07,30,14,20,30.20
2018,07,30,14,21,30.20
2018,07,30,14,22,30.20
2018,07,30,14,23,30.30
2018,07,30,14,24,30.30
2018,07,30,14,25,30.30
2018,07,30,14,26,30.40
2018,07,30,14,27,30.40
2018,07,30,14,28,30.30
2018,07,30,14,29,30.30
2018,07,30,14,30,30.30
2018,07,30,14,31,30.20
2018,07,30,14,32,30.20
2018,07,30,14,33,30.10
2018,07,30,14,34,30.00
2018,07,30,14,35,29.90
2018,07,30,14,36,29.80
2018,07,30,14,37,29.80
2018,07,30,14,38,29.80
2018,07,30,14,39,29.80
2018,07,30,14,40,29.90
2018,07,30,14,41,29.90
2018,07,30,14,42,29.90
2018,07,30,14,43,29.90
2018,07,30,14,44,29.90
2018,07,30,14,45,29.90
2018,07,30,14,46,29.90
2018,07,30,14,47,29.90
2018,07,30,14,48,30.00
2018,07,30,14,49,30.00
2018,07,30,14,50,30.00
2018,07,30,14,51,30.10
2018,07,30,14,52,30.10
2018,07,30,14,53,30.20
2018,07,30,14,54,30.30
2018,07,30,14,55,30.40
2018,07,30,14,56,30.50
2018,07,30,14,57,30.60
2018,07,30,14,58,30.70
2018,07,30,14,59,30.80
2018,07,30,15,00,30.80
2018,07,30,15,01,30.90
2018,07,30,15,02,31.00
2018,07,30,15,03,31.10
2018,07,30,15,04,31.20
2018,07,30,15,05,31.20
2018,07,30,15,06,31.30
2018,07,30,15,07,31.30
2018,07,30,15,08,31.40
2018,07,30,15,09,31.40
2018,07,30,15,10,31.50
2018,07,30,15,11,31.50
2018,07,30,15,12,31.60
2018,07,30,15,13,31.70
2018,07,30,15,14,31.80
2018,07,30,15,15,31.90
2018,07,30,15,16,31.90
2018,07,30,15,17,31.90
2018,07,30,15,18,31.90
2018,07,30,15,19,31.80
2018,07,30,15,20,31.80
2018,07,30,15,21,31.70
2018,07,30,15,22,31.70
2018,07,30,15,23,31.60
2018,07,30,15,24,31.70
2018,07,30,15,25,31.70
2018,07,30,15,26,31.70
2018,07,30,15,27,31.80
2018,07,30,15,28,31.80
2018,07,30,15,29,31.90
2018,07,30,15,30,31.90
2018,07,30,15,31,32.00
2018,07,30,15,32,32.00
2018,07,30,15,33,32.10
2018,07,30,15,34,32.10
2018,07,30,15,35,32.00
2018,07,30,15,36,32.00
2018,07,30,15,37,31.90
2018,07,30,15,38,31.80
2018,07,30,15,39,31.70
2018,07,30,15,40,31.70
2018,07,30,15,41,31.60
2018,07,30,15,42,31.60
2018,07,30,15,43,31.50
2018,07,30,15,44,31.40
2018,07,30,15,45,31.30
2018,07,30,15,46,31.20
2018,07,30,15,47,31.20
2018,07,30,15,48,31.20
2018,07,30,15,49,31.20
2018,07,30,15,50,31.20
2018,07,30,15,51,31.20
2018,07,30,15,52,31.20
2018,07,30,15,53,31.40
2018,07,30,15,54,31.50
2018,07,30,15,55,31.60
2018,07,30,15,56,31.60
2018,07,30,15,57,31.60
2018,07,30,15,58,31.60
2018,07,30,15,59,31.60
2018,07,30,16,00,31.70
2018,07,30,16,01,31.60
2018,07,30,16,02,31.50
2018,07,30,16,03,31.40
2018,07,30,16,04,31.30
2018,07,30,16,05,31.20
2018,07,30,16,06,31.10
2018,07,30,16,07,31.10
2018,07,30,16,08,31.00
2018,07,30,16,09,31.00
2018,07,30,16,10,31.00
2018,07,30,16,11,30.90
2018,07,30,16,12,30.90
2018,07,30,16,13,30.90
2018,07,30,16,14,30.90
2018,07,30,16,15,30.90
2018,07,30,16,16,30.90
2018,07,30,16,17,31.00
2018,07,30,16,18,31.00
2018,07,30,16,19,31.00
2018,07,30,16,20,31.10
2018,07,30,16,21,31.20
2018,07,30,16,22,31.30
2018,07,30,16,23,31.40
2018,07,30,16,24,31.50
2018,07,30,16,25,31.60
2018,07,30,16,26,31.70
2018,07,30,16,27,31.70
2018,07,30,16,28,31.70
2018,07,30,16,29,31.70
2018,07,30,16,30,31.70
2018,07,30,16,31,31.70
2018,07,30,16,32,31.60
2018,07,30,16,33,31.50
2018,07,30,16,34,31.40
2018,07,30,16,35,31.40
2018,07,30,16,36,31.40
2018,07,30,16,37,31.40
2018,07,30,16,38,31.40
2018,07,30,16,39,31.50
2018,07,30,16,40,31.40
2018,07,30,16,41,31.40
2018,07,30,16,42,31.40
2018,07,30,16,43,31.40
2018,07,30,16,44,31.30
2018,07,30,16,45,31.30
2018,07,30,16,46,31.30
2018,07,30,16,47,31.30
2018,07,30,16,48,31.30
2018,07,30,16,49,31.30
2018,07,30,16,50,31.30
2018,07,30,16,51,31.20
2018,07,30,16,52,31.20
2018,07,30,16,53,31.30
2018,07,30,16,54,31.30
2018,07,30,16,55,31.40
2018,07,30,16,56,31.50
2018,07,30,16,57,31.50
2018,07,30,16,58,31.60
2018,07,30,16,59,31.60
2018,07,30,17,00,31.60
2018,07,30,17,01,31.60
2018,07,30,17,02,31.60
2018,07,30,17,03,31.60
2018,07,30,17,04,31.60
2018,07,30,17,05,31.60
2018,07,30,17,06,31.60
2018,07,30,17,07,31.60
2018,07,30,17,08,31.60
2018,07,30,17,09,31.60
2018,07,30,17,10,31.70
2018,07,30,17,11,31.70
2018,07,30,17,12,31.80
2018,07,30,17,13,31.90
2018,07,30,17,14,31.90
2018,07,30,17,15,32.00
2018,07,30,17,16,32.00
2018,07,30,17,17,32.00
2018,07,30,17,18,32.00
2018,07,30,17,19,31.90